Overview Statistics Trail Chart Weather Telemetry Raw packets
 

This is the latest recevied weather packets stored in our database for station/object KB9HUO. If no packets are shown the sender has not sent any weather packets the latest 10 day(s).

<< 1 2 3 4 5 6 7 >>
Time Temp. Humidity Pressure Rain* Wind** Luminosity Snow
1788653398 25° C 82% 1012.6 hPa 0 mm - 1 W/m² -
1788653094 25° C 81% 1012.6 hPa 0 mm - 2 W/m² -
1788652794 25.56° C 80% 1012.7 hPa 0 mm - 3 W/m² -
1788652488 25.56° C 78% 1012.8 hPa 0 mm - 5 W/m² -
1788652183 25.56° C 77% 1013 hPa 0 mm - 7 W/m² -
1788651878 26.11° C 75% 1012.6 hPa 0 mm - 10 W/m² -
1788651573 26.11° C 73% 1012.8 hPa 0 mm - 13 W/m² -
1788651269 26.11° C 72% 1012.9 hPa 0 mm - 16 W/m² -
1788650967 26.11° C 71% 1013 hPa 0 mm - 19 W/m² -
1788650664 26.11° C 71% 1012.7 hPa 0 mm - 22 W/m² -
1788650359 26.11° C 68% 1012.8 hPa 0 mm - 26 W/m² -
1788650054 25.56° C 70% 1012.9 hPa 0 mm - 30 W/m² -
1788649745 25.56° C 72% 1013 hPa 0 mm - 37 W/m² -
1788649443 25.56° C 74% 1013 hPa 0 mm - 50 W/m² -
1788649141 25.56° C 75% 1013.2 hPa 0 mm - 44 W/m² -
1788648837 26.67° C 74% 1013.3 hPa 0 mm - 24 W/m² -
1788648532 27.22° C 72% 1013.4 hPa 0 mm - 15 W/m² -
1788648228 28.33° C 77% 1013 hPa 0 mm - 15 W/m² -
1788647922 29.44° C 76% 1013 hPa 0 mm - 17 W/m² -
1788647620 30.56° C 73% 1012.9 hPa 0 mm - 17 W/m² -
1788647314 31.67° C 69% 1012.5 hPa 0 mm - 18 W/m² -
1788647013 31.67° C 66% 1012.3 hPa 0 mm - 18 W/m² -
1788646709 32.22° C 65% 1012.2 hPa 0 mm - 19 W/m² -
1788646406 32.78° C 63% 1012.2 hPa 0 mm - 21 W/m² -
1788646101 33.33° C 61% 1012.2 hPa 0 mm - 25 W/m² -

* Rain latest hour (hover to see other rain measurements)
** Current wind speed in m/s (hover to see current wind gust speed)